GW6323 Weather Reports


time (UTC)temp
F
wind
direction
speed
knots
gust
knots
rain 1hr
in
rain 24hr
in
rain mn
in
humidity
%
barometer
mb
20260505184038 82 30 1.7 4.3 0.00 0.00 0.00 36 1017.3
20260505183533 83 49 0.9 7.0 0.00 0.00 0.00 36 1017.3
20260505183044 83 0 1.7 7.0 0.00 0.00 0.00 38 1017.3
20260505182534 84 26 1.7 4.3 0.00 0.00 0.00 34 1017.4
20260505182034 84 38 0.9 3.5 0.00 0.00 0.00 36 1017.4
20260505181541 84 34 0.9 3.5 0.00 0.00 0.00 38 1017.5
20260505181032 83 13 0.9 3.5 0.00 0.00 0.00 38 1017.6
20260505180533 83 42 0.9 3.5 0.00 0.00 0.00 38 1017.6
20260505180044 82 46 0.9 3.5 0.00 0.00 0.00 40 1017.6
20260505175531 82 34 0.9 3.5 0.00 0.00 0.00 40 1017.7
20260505175033 82 47 0.9 2.6 0.00 0.00 0.00 38 1017.7
20260505174546 82 49 0.9 3.5 0.00 0.00 0.00 43 1017.6
20260505174032 82 43 0.9 3.5 0.00 0.00 0.00 37 1017.7
20260505173530 83 0 0.0 3.5 0.00 0.00 0.00 40 1017.6
20260505173041 82 62 0.9 3.5 0.00 0.00 0.00 40 1017.7
20260505172529 82 74 0.0 3.5 0.00 0.00 0.00 42 1017.7
20260505172031 82 120 0.9 3.5 0.00 0.00 0.00 50 1017.8
20260505171548 82 67 0.0 5.2 0.00 0.00 0.00 44 1017.9
20260505171033 82 57 1.7 5.2 0.00 0.00 0.00 44 1018.0
20260505170532 82 46 0.9 3.5 0.00 0.00 0.00 43 1018.0
20260505170043 81 0 0.9 3.5 0.00 0.00 0.00 46 1018.1
20260505165530 81 0 0.0 3.5 0.00 0.00 0.00 45 1018.0
20260505165030 81 55 0.9 3.5 0.00 0.00 0.00 45 1018.0
20260505164545 81 57 0.9 3.5 0.00 0.00 0.00 43 1018.0
20260505164031 81 59 0.9 5.2 0.00 0.00 0.00 43 1018.0
20260505163528 81 40 0.0 5.2 0.00 0.00 0.00 44 1018.0
20260505163041 81 35 0.9 4.3 0.00 0.00 0.00 44 1018.1
20260505162530 80 36 0.9 4.3 0.00 0.00 0.00 46 1018.0
20260505162033 80 35 0.9 4.3 0.00 0.00 0.00 44 1018.2
20260505161544 80 35 0.9 4.3 0.00 0.00 0.00 44 1018.1
20260505161031 80 116 0.9 3.5 0.00 0.00 0.00 54 1018.1
20260505160532 80 0 0.0 3.5 0.00 0.00 0.00 45 1018.0
20260505153047 79 58 0.9 3.5 0.00 0.00 0.00 46 1018.1
20260505152533 79 44 0.9 3.5 0.00 0.00 0.00 47 1018.0
20260505152036 78 55 0.9 2.6 0.00 0.00 0.00 47 1018.0
20260505151540 78 54 0.9 2.6 0.00 0.00 0.00 48 1017.9
20260505151033 78 54 0.9 2.6 0.00 0.00 0.00 50 1017.9
20260505150530 77 54 0.9 3.5 0.00 0.00 0.00 50 1018.0
20260505140532 74 49 0.0 1.7 0.00 0.00 0.00 57 1017.7
20260505125032 65 0 0.0 0.0 0.00 0.00 0.00 81 1017.3
20260505124540 65 0 0.0 0.0 0.00 0.00 0.00 82 1017.2
20260505124031 65 0 0.0 0.0 0.00 0.00 0.00 84 1017.3
20260505123533 64 0 0.0 0.0 0.00 0.00 0.00 84 1017.4
20260505123048 64 0 0.0 0.0 0.00 0.00 0.00 85 1017.3
20260505122532 63 0 0.0 0.0 0.00 0.00 0.00 85 1017.4
20260505122032 63 0 0.0 0.0 0.00 0.00 0.00 85 1017.2
20260505121537 62 0 0.0 0.0 0.00 0.00 0.00 85 1017.1
20260505121038 61 0 0.0 0.0 0.00 0.00 0.00 85 1017.0
20260505120532 61 0 0.0 0.0 0.00 0.00 0.00 85 1016.8
20260505120052 60 0 0.0 0.0 0.00 0.00 0.00 84 1016.8
20260505115531 60 0 0.0 0.0 0.00 0.00 0.00 84 1016.9
20260505115034 60 0 0.0 0.0 0.00 0.00 0.00 84 1016.9
20260505114543 59 0 0.0 0.0 0.00 0.00 0.00 84 1017.0
20260505114033 59 0 0.0 0.0 0.00 0.00 0.00 84 1017.0
20260505113557 59 0 0.0 0.0 0.00 0.00 0.00 84 1016.8
20260505113040 59 0 0.0 0.0 0.00 0.00 0.00 84 1016.8
20260505112531 58 0 0.0 0.0 0.00 0.00 0.00 84 1016.7
20260505112033 58 0 0.0 0.0 0.00 0.00 0.00 84 1016.6
20260505111546 58 0 0.0 0.0 0.00 0.00 0.00 83 1016.7
20260505111033 58 0 0.0 0.0 0.00 0.00 0.00 83 1016.6
20260505110532 58 0 0.0 0.0 0.00 0.00 0.00 83 1016.5
20260505102032 58 0 0.0 0.0 0.00 0.00 0.00 82 1016.1
20260505101540 58 0 0.0 0.0 0.00 0.00 0.00 82 1016.0
20260505101036 58 0 0.0 0.0 0.00 0.00 0.00 82 1016.1
20260505100531 58 0 0.0 0.0 0.00 0.00 0.00 82 1016.0
20260505100045 58 0 0.0 0.0 0.00 0.00 0.00 82 1016.0
20260505095531 58 0 0.0 0.0 0.00 0.00 0.00 82 1016.0
20260505095033 58 0 0.0 0.0 0.00 0.00 0.00 82 1015.9
20260505094548 58 0 0.0 0.0 0.00 0.00 0.00 82 1015.9
20260505094029 59 0 0.0 0.0 0.00 0.00 0.00 82 1015.8
20260505093533 59 0 0.0 0.0 0.00 0.00 0.00 82 1015.8
20260505093045 59 0 0.0 0.0 0.00 0.00 0.00 82 1015.8
20260505092532 59 0 0.0 0.0 0.00 0.00 0.00 82 1015.7
20260505092032 59 0 0.0 0.0 0.00 0.00 0.00 82 1015.7
20260505091551 59 0 0.0 0.0 0.00 0.00 0.00 81 1015.6
20260505091033 59 0 0.0 0.0 0.00 0.00 0.00 81 1015.7
20260505090531 59 0 0.0 0.0 0.00 0.00 0.00 81 1015.7
20260505090041 59 0 0.0 0.0 0.00 0.00 0.00 81 1015.8
20260505085532 59 0 0.0 0.0 0.00 0.00 0.00 81 1015.8
20260505085031 59 0 0.0 0.0 0.00 0.00 0.00 81 1015.7
20260505084602 59 0 0.0 0.0 0.00 0.00 0.00 81 1015.7
20260505084030 59 0 0.0 0.0 0.00 0.00 0.00 81 1015.7
20260505083530 59 0 0.0 0.0 0.00 0.00 0.00 81 1015.8
20260505083102 59 0 0.0 0.0 0.00 0.00 0.00 80 1015.8
20260505082534 59 0 0.0 0.0 0.00 0.00 0.00 80 1015.6
20260505082031 59 0 0.0 0.0 0.00 0.00 0.00 80 1015.5
20260505081557 59 0 0.0 0.0 0.00 0.00 0.00 80 1015.5
20260505081032 59 0 0.0 0.0 0.00 0.00 0.00 80 1015.6
20260505080532 59 0 0.0 0.0 0.00 0.00 0.00 80 1015.8
20260505080055 60 0 0.0 0.0 0.00 0.00 0.00 79 1015.7
20260505075531 60 0 0.0 0.0 0.00 0.00 0.00 79 1015.7
20260505075030 60 0 0.0 0.0 0.00 0.00 0.00 79 1015.8
20260505074541 60 0 0.0 0.0 0.00 0.00 0.00 78 1015.7
20260505074030 60 0 0.0 0.0 0.00 0.00 0.00 78 1015.8
20260505073530 60 0 0.0 0.0 0.00 0.00 0.00 78 1015.8
20260505073050 60 0 0.0 0.0 0.00 0.00 0.00 78 1015.7
20260505072532 60 0 0.0 0.0 0.00 0.00 0.00 78 1015.9
20260505072031 60 0 0.0 0.0 0.00 0.00 0.00 78 1015.8
20260505071548 60 0 0.0 0.0 0.00 0.00 0.00 78 1016.0
20260505071032 61 0 0.0 0.0 0.00 0.00 0.00 77 1015.9
20260505070535 61 0 0.0 0.0 0.00 0.00 0.00 76 1015.8
20260505070051 61 0 0.0 0.0 0.00 0.00 0.00 77 1015.9
20260505065531 61 0 0.0 0.0 0.00 0.00 0.00 76 1015.8
20260505065031 61 0 0.0 0.0 0.00 0.00 0.00 75 1015.8
20260505064542 61 0 0.0 0.0 0.00 0.00 0.00 75 1016.0
20260505064033 62 0 0.0 0.0 0.00 0.00 0.00 75 1015.9
20260505063535 62 0 0.0 0.0 0.00 0.00 0.00 74 1015.9
20260505063049 62 0 0.0 0.0 0.00 0.00 0.00 74 1016.0
20260505062530 62 0 0.0 0.0 0.00 0.00 0.00 73 1016.1
20260505062030 62 0 0.0 0.0 0.00 0.00 0.00 73 1016.1
20260505061541 63 0 0.0 0.0 0.00 0.00 0.00 72 1016.2
20260505061031 63 0 0.0 0.0 0.00 0.00 0.00 72 1016.3
20260505060536 63 0 0.0 0.0 0.00 0.00 0.00 71 1016.3
20260505060055 63 0 0.0 0.0 0.00 0.00 0.00 70 1016.2
20260505055532 63 0 0.0 0.0 0.00 0.00 0.00 70 1016.4
20260505055031 64 0 0.0 0.0 0.00 0.00 0.00 69 1016.4
20260505054537 64 0 0.0 0.0 0.00 0.00 0.00 69 1016.5
20260505054035 64 0 0.0 0.0 0.00 0.00 0.00 68 1016.5
20260505053531 65 0 0.0 0.0 0.00 0.00 0.00 67 1016.5
20260505053044 65 0 0.0 0.0 0.00 0.00 0.00 66 1016.6
20260505052534 65 0 0.0 0.0 0.00 0.00 0.00 66 1016.7
20260505052036 66 0 0.0 0.0 0.00 0.00 0.00 65 1016.9
20260505051543 66 0 0.0 0.0 0.00 0.00 0.00 65 1017.0
20260505051035 66 0 0.0 0.0 0.00 0.00 0.00 64 1017.0
20260505050534 67 0 0.0 0.0 0.00 0.00 0.00 63 1017.0
20260505041553 68 0 0.0 0.0 0.00 0.00 0.00 59 1017.3
20260505041034 68 0 0.0 0.9 0.00 0.00 0.00 59 1017.2
20260505040536 68 0 0.0 1.7 0.00 0.00 0.00 60 1017.1
20260505040048 68 0 0.0 1.7 0.00 0.00 0.00 60 1017.2
20260505035535 68 47 0.0 1.7 0.00 0.00 0.00 59 1017.2
20260505035037 68 47 0.0 1.7 0.00 0.00 0.00 59 1017.2
20260505034543 68 47 0.9 1.7 0.00 0.00 0.00 59 1017.2
20260505034034 68 47 0.0 1.7 0.00 0.00 0.00 59 1017.2
20260505033534 68 47 0.0 1.7 0.00 0.00 0.00 59 1017.3
20260505033044 68 0 0.0 1.7 0.00 0.00 0.00 59 1017.3
20260505032534 68 0 0.0 1.7 0.00 0.00 0.00 59 1017.3
20260505032036 68 0 0.0 2.6 0.00 0.00 0.00 58 1017.3
20260505031544 68 0 0.0 2.6 0.00 0.00 0.00 58 1017.3
20260505031031 68 0 0.9 2.6 0.00 0.00 0.00 58 1017.4
20260505030537 68 47 0.0 1.7 0.00 0.00 0.00 59 1017.4
20260505030056 68 0 0.0 1.7 0.00 0.00 0.00 58 1017.4
20260505025535 68 0 0.0 1.7 0.00 0.00 0.00 59 1017.4
20260505025035 68 47 0.0 1.7 0.00 0.00 0.00 59 1017.4
20260505024548 68 47 0.0 2.6 0.00 0.00 0.00 59 1017.4
20260505024034 68 47 0.0 2.6 0.00 0.00 0.00 58 1017.4
20260505023534 69 47 0.9 1.7 0.00 0.00 0.00 58 1017.4
20260505023041 69 0 0.0 2.6 0.00 0.00 0.00 58 1017.4
20260505022531 69 47 0.0 2.6 0.00 0.00 0.00 59 1017.4
20260505022033 69 47 0.0 1.7 0.00 0.00 0.00 59 1017.4
20260505021543 69 0 0.0 2.6 0.00 0.00 0.00 59 1017.4
20260505021033 69 47 0.0 2.6 0.00 0.00 0.00 59 1017.4
20260505020533 69 47 0.0 2.6 0.00 0.00 0.00 59 1017.5
20260505020040 69 47 0.0 1.7 0.00 0.00 0.00 59 1017.4
20260505015535 69 47 0.0 1.7 0.00 0.00 0.00 59 1017.4
20260505015035 69 47 0.0 2.6 0.00 0.00 0.00 59 1017.4
20260505014602 69 47 0.0 2.6 0.00 0.00 0.00 59 1017.3
20260505014034 69 47 0.9 2.6 0.00 0.00 0.00 60 1017.2
20260505013534 69 47 0.0 1.7 0.00 0.00 0.00 59 1017.3
20260505013050 69 47 0.0 1.7 0.00 0.00 0.00 59 1017.3
20260505012531 69 47 0.0 1.7 0.00 0.00 0.00 59 1017.2
20260505012031 69 47 0.0 1.7 0.00 0.00 0.00 59 1017.2
20260505011543 69 47 0.0 2.6 0.00 0.00 0.00 59 1017.1
20260505011038 69 0 0.9 2.6 0.00 0.00 0.00 59 1017.0
20260505010535 69 47 0.0 2.6 0.00 0.00 0.00 59 1017.1
20260505010051 69 47 0.9 3.5 0.00 0.00 0.00 59 1017.0
20260505005534 69 47 0.0 3.5 0.00 0.00 0.00 58 1016.9
20260505005035 70 0 0.0 2.6 0.00 0.00 0.00 58 1017.0
20260505004546 70 0 0.0 2.6 0.00 0.00 0.00 58 1016.9
20260505004033 70 47 0.9 2.6 0.00 0.00 0.00 58 1016.9
20260505003534 70 47 0.0 1.7 0.00 0.00 0.00 58 1016.9
20260505003054 70 47 0.0 1.7 0.00 0.00 0.00 57 1017.0
20260505002534 70 47 0.0 2.6 0.00 0.00 0.00 57 1016.9
20260505002034 70 47 0.9 2.6 0.00 0.00 0.00 57 1016.8
20260505001543 71 0 0.0 1.7 0.00 0.00 0.00 57 1016.9
20260505001034 71 0 0.0 1.7 0.00 0.00 0.00 56 1016.8
20260505000534 71 47 0.9 2.6 0.00 0.00 0.00 55 1016.8
20260505000040 71 0 0.0 2.6 0.00 0.00 0.00 55 1016.7
20260504235534 71 47 0.9 3.5 0.00 0.00 0.00 55 1016.5
20260504235035 72 47 0.9 3.5 0.00 0.00 0.00 55 1016.5
20260504234538 72 47 0.9 2.6 0.00 0.00 0.00 54 1016.6
20260504234035 72 76 0.9 2.6 0.00 0.00 0.00 54 1016.6
20260504233531 72 76 0.9 2.6 0.00 0.00 0.00 54 1016.6
20260504233042 72 59 0.0 2.6 0.00 0.00 0.00 54 1016.5
20260504232535 73 59 0.9 2.6 0.00 0.00 0.00 53 1016.3
20260504232030 73 59 0.9 3.5 0.00 0.00 0.00 53 1016.2
20260504231537 73 0 0.9 3.5 0.00 0.00 0.00 53 1016.2
20260504231029 73 57 0.9 3.5 0.00 0.00 0.00 52 1016.3
20260504230531 73 57 0.9 3.5 0.00 0.00 0.00 52 1016.3
20260504230035 74 67 1.7 3.5 0.00 0.00 0.00 51 1016.1
20260504225532 74 67 0.9 4.3 0.00 0.00 0.00 50 1016.2
20260504225030 74 61 0.9 4.3 0.00 0.00 0.00 50 1016.4
20260504224541 75 60 0.9 3.5 0.00 0.00 0.00 50 1016.5
20260504224030 75 63 0.9 3.5 0.00 0.00 0.00 49 1016.5
20260504223530 75 63 0.9 3.5 0.00 0.00 0.00 49 1016.4
20260504223055 76 62 1.7 3.5 0.00 0.00 0.00 48 1016.5
20260504222530 76 63 0.9 3.5 0.00 0.00 0.00 47 1016.7
20260504222029 76 63 0.9 3.5 0.00 0.00 0.00 47 1016.7
20260504221537 77 63 0.9 3.5 0.00 0.00 0.00 46 1016.7
20260504221030 77 71 0.9 3.5 0.00 0.00 0.00 45 1016.6
20260504220530 78 53 0.9 4.3 0.00 0.00 0.00 44 1016.7
20260504220036 79 0 0.9 4.3 0.00 0.00 0.00 44 1016.5
20260504215529 79 57 0.9 3.5 0.00 0.00 0.00 44 1016.5
20260504215036 79 53 0.9 2.6 0.00 0.00 0.00 44 1016.4
20260504214537 79 43 0.9 4.3 0.00 0.00 0.00 44 1016.5
20260504214033 79 42 0.9 4.3 0.00 0.00 0.00 42 1016.6
20260504213530 80 67 0.9 3.5 0.00 0.00 0.00 42 1016.6
20260504213043 80 67 1.7 4.3 0.00 0.00 0.00 43 1016.6
20260504212530 80 59 1.7 4.3 0.00 0.00 0.00 44 1016.5
20260504212031 79 44 0.9 3.5 0.00 0.00 0.00 44 1016.5
20260504211604 79 59 1.7 3.5 0.00 0.00 0.00 46 1016.6
20260504211030 78 63 0.9 4.3 0.00 0.00 0.00 46 1016.6
20260504210533 78 147 1.7 4.3 0.00 0.00 0.00 48 1016.6
20260504210043 77 71 1.7 4.3 0.00 0.00 0.00 49 1016.6
20260504205530 77 76 0.9 4.3 0.00 0.00 0.00 48 1016.8
20260504205032 77 150 0.9 4.3 0.00 0.00 0.00 47 1016.8
20260504204535 77 43 1.7 4.3 0.00 0.00 0.00 49 1016.8
20260504204033 77 51 0.9 3.5 0.00 0.00 0.00 47 1016.7
20260504203530 77 78 1.7 3.5 0.00 0.00 0.00 46 1016.7
20260504203044 78 63 0.9 3.5 0.00 0.00 0.00 46 1016.7
20260504202530 79 97 0.9 5.2 0.00 0.00 0.00 44 1016.7
20260504202030 80 0 0.9 7.0 0.00 0.00 0.00 44 1016.7
20260504201542 80 34 2.6 7.0 0.00 0.00 0.00 53 1016.6
20260504201030 81 45 0.9 4.3 0.00 0.00 0.00 43 1016.7
20260504200531 81 0 0.9 4.3 0.00 0.00 0.00 42 1016.8
20260504200040 81 40 0.9 7.0 0.00 0.00 0.00 42 1016.9
20260504195531 82 31 2.6 7.0 0.00 0.00 0.00 40 1017.0
20260504195031 82 38 0.9 5.2 0.00 0.00 0.00 40 1017.1
20260504194550 82 35 0.9 5.2 0.00 0.00 0.00 42 1017.0
20260504194033 81 35 1.7 5.2 0.00 0.00 0.00 50 1017.1
20260504193531 81 39 0.9 3.5 0.00 0.00 0.00 41 1017.1
20260504193044 81 37 0.9 7.0 0.00 0.00 0.00 41 1017.2
20260504192531 81 37 1.7 7.0 0.00 0.00 0.00 41 1017.3
20260504192032 81 43 1.7 4.3 0.00 0.00 0.00 39 1017.4
20260504191558 81 34 1.7 3.5 0.00 0.00 0.00 38 1017.4
20260504191032 81 37 0.9 5.2 0.00 0.00 0.00 48 1017.4
20260504190530 81 37 1.7 5.2 0.00 0.00 0.00 48 1017.6
20260504190048 81 40 0.9 3.5 0.00 0.00 0.00 39 1017.7
20260504185532 81 40 0.9 3.5 0.00 0.00 0.00 40 1017.7
20260504185031 81 40 0.9 3.5 0.00 0.00 0.00 40 1017.8
20260504184548 80 38 0.9 3.5 0.00 0.00 0.00 40 1017.9